Tracking 19800 objects as of 24-Jul-2019
HD Live streaming from Space Station
objects crossing your sky now

TIROS 4

Track TIROS 4 now!
10-day predictions
TIROS 4 is classified as:


NORAD ID: 226
Int'l Code: 1962-002A
Perigee: 691.2 km
Apogee: 802.9 km
Inclination: 48.3 °
Period: 99.6 minutes
Semi major axis: 7118 km
RCS: 0.8251 m2 (medium)
Launch date: February 8, 1962
Source: United States (US)
Launch site: AIR FORCE EASTERN TEST RANGE (AFETR)
aabbcc
Your satellite tracking list
Your tracking list is empty




NASA's NSSDC Master Catalog

Two Line Element Set (TLE):
1   226U 62002A   19204.17993714 -.00000146  00000-0  74673-5 0  9991
2   226  48.2954 243.9062 0078486 318.4462  41.0489 14.45652202 24464
Source of the keplerian elements: AFSPC